TIMESTAMP,CO2_1_1_1,H2O_1_1_1,TAU_1_1_1,TAU_SSITC_TEST_1_1_1,H_1_1_1,H_SSITC_TEST_1_1_1,LE_1_1_1,LE_SSITC_TEST_1_1_1,FC_1_1_1,FC_SSITC_TEST_1_1_1,WD_0_0_1,WS_0_0_1,WS_MAX_0_0_1,U_SIGMA_0_0_1,V_SIGMA_0_0_1,W_SIGMA_0_0_1,USTAR_0_0_1,MO_LENGTH_0_0_1,ZL_0_0_1,FETCH_MAX_0_0_1,FETCH_70_0_0_1,FETCH_80_0_0_1,FETCH_90_0_0_1,PA_0_0_1,RH_0_0_1,TA_0_0_1,VPD_0_0_1,T_SONIC_0_0_1,T_SONIC_SIGMA_0_0_1
[yyyymmddHHMMSS],[mmolCO2 mol-1],[mmolH2O mol-1],[kg m-1 s-2],[#],[W m-2],[#],[W m-2],[#],[umolCO2 m-2 s-1],[#],[Decimal degrees],[m s-1],[m s-1],[m s-1],[m s-1],[m s-1],[m s-1],[m],[#],[m],[m],[m],[m],[kPa],[%],[deg C],[hPa],[deg C],[deg C]
20220722003000,405.40973048033493,14.122124835555109,0.21012564151194588,0,-6.8141203057419402,1,41.552737720500836,0,-2.0729343407743368,0,302.41641373086179,3.0653806138013611,7.8988171202240096,1.0316695539757079,0.82480957312201764,0.62103254311072542,0.43919327510072054,1030.7550637944946,1.8433089166747085E-002,94.904751922582477,173.51615483265218,207.65452069037482,259.95881872251977,93.021850399674975,47.617586206896554,22.753103448275851,14.455051057384116,23.027154400287827,0.13798375781816294
20220722010000,405.82186238967233,14.408003222630663,0.20801948759030267,0,-28.533093990303442,0,56.503024778864528,0,-2.2887665474184598,0,294.88404351442585,2.6034039942425129,6.9898346574562931,0.91931072594486818,0.66975205775696633,0.52292692980595912,0.43658473241094770,241.83928545976184,7.8564572186355111E-002,108.38194209969785,198.15675680576587,237.14302795463539,296.87493058380585,93.038771405598965,50.156999999999996,22.230666666666650,13.324682354684944,22.643004987928578,0.18094981366909366
20220722013000,407.79975133875485,14.354023853923241,8.0086787427325293E-002,0,-6.8359377024109955,2,17.719694321111309,0,-0.59556875011893851,2,284.66426227657496,2.6181124981004111,4.8821796621699445,0.63802725976789210,0.48034722870451996,0.36055242377418623,0.27055595349982264,240.25366702754084,7.9083080125565725E-002,99.514379682353621,181.94402454288340,217.74052822556291,272.58530330738176,93.050166149088554,52.128666666666668,21.539333333333332,12.268916276886383,22.063315817091279,0.26641398450141679
20220722020000,411.74580891007867,14.850216165950995,6.4315464816541407E-002,0,-14.742346319918616,1,3.3121005755753417,2,1.0565536767227457,2,271.30986577980394,2.6853931810533362,5.2961722319466125,0.53339484426368211,0.37369435704452653,0.28539856545288245,0.24211104059628263,79.850041050701520,0.23794602670192461,109.77542991460413,200.70449696155839,240.19202221920381,300.69190959622415,93.072016286134499,56.750000000000000,20.713000000000022,10.536312017268628,21.447825266715313,0.29070247931160442
20220722023000,414.01706411457900,15.033729691667018,4.9033209335367284E-002,0,-19.371991972310934,0,10.874294494734940,1,2.5563268284291079,1,269.00854879442420,2.6985018887283654,4.5607301433420124,0.48226026970507074,0.40685797981156624,0.28730169393846577,0.21112048395825461,40.304825485175805,0.47140757393896265,97.860774534315183,178.92070694195689,214.12238922334348,268.05582262059585,93.112584673177082,59.886333333333333,20.047666666666657,9.3789935417944328,20.798680595397968,0.28983757181396863
20220722030000,414.79648420153455,14.903599851436283,3.5737650703839489E-002,0,-15.040191840678627,0,7.8623619162670861,1,1.5660988252888892,0,263.30033878416907,2.5078236820323112,4.1010742076372644,0.42426462964741107,0.33574086526085134,0.23352157909062263,0.18004940654091556,32.204844368027295,0.58997335254515448,253.14606607336438,2536.0000000000000,4761.0000000000000,-9999.,93.134842518229163,61.371666666666670,19.516333333333307,8.7389227092301844,20.293128184000693,0.23607516318530494
20220722033000,416.60778313896839,15.065764111524219,0.10987391177084788,0,-42.698258257474215,0,11.402016440429277,0,4.5267606813825410,0,265.47292129558616,3.0563452632925983,6.2002789329741308,0.66236955987222013,0.54810000706075179,0.40496738776621960,0.31553308777914679,61.058309304562727,0.31117795786363478,102.55451503052632,187.50236156078179,224.39243801690446,280.91270502181055,93.138338861111123,63.283000000000001,19.197999999999979,8.1435967585623263,19.971930838690923,0.28536666422629170
20220722040000,418.24064367500904,15.284065452698568,8.4090629581529394E-002,0,-27.771193014582501,0,-6.2672368847139639,2,0.89291332138000601,2,255.05786168387061,2.8001060001856524,5.2858486470530792,0.64565018960360665,0.49013978930960678,0.34796415631156369,0.27584835990014656,62.728175518918157,0.30289419137130491,103.98330501136583,190.11464533494862,227.51867450799676,284.82638213594072,93.142340730034718,65.894000000000005,18.781333333333350,7.3703384630661963,19.575137435065471,0.28563043550402373
20220722043000,420.53399151744600,15.566290431272387,0.10158813860572574,0,-38.988723915549066,0,-4.5749573090736995,2,1.7995486486228944,0,258.45879295662212,2.7814377363521579,5.3470801984370944,0.70493475316093712,0.61586296286303110,0.41040954266816931,0.30301699402419163,59.220994011271870,0.32083216969278872,98.232348723034463,179.60006306644499,214.93540499438046,269.07362188997314,93.127445827473963,68.867666666666665,18.365999999999985,6.5550438815674168,19.185559609307234,0.27585076446795004
20220722050000,420.25095637668528,15.418153827676791,9.5890952838731280E-002,0,-28.868344648445056,0,-3.1931453974646189,0,0.74685831078898401,1,262.74857893428674,2.7392922630503516,5.9958194295436327,0.71731703828451066,0.59898084270894703,0.41198672463264369,0.29431758566300992,73.288836409949283,0.25924821474475840,95.675621479300744,174.92555023856841,209.34120702664714,262.07034986605095,93.130345416449657,68.786000000000001,18.233000000000004,6.5176260335302096,19.033104059007485,0.30365010724228836
20220722053000,420.89375396296390,15.269778008196031,7.7702942005254863E-002,0,-27.363905424280500,0,3.7989430508873170,1,1.2171761650350268,1,259.24638963014462,2.9416239237024557,5.4656840545163252,0.57547844432240547,0.52758498604468018,0.36760648122296852,0.26482831869474210,56.322816268248644,0.33734108588442580,96.320762224042269,176.10507327704320,210.75279484931397,263.83749031492522,93.121801639756953,69.213666666666668,17.978999999999985,6.3265461818270659,18.769737067328606,0.29061285280848875
20220722060000,425.36681457630982,15.320495041147987,9.6284804974541394E-002,0,-29.950977252187226,0,0.94144203035550300,1,2.3165957569514211,0,243.26230574719804,2.9215934314074992,5.3200364874421213,0.58506577114676372,0.47090019460946653,0.35276544840564750,0.29434156244566151,70.666116680948662,0.26887001709437830,108.32964981586818,198.06114983315669,237.02861082678373,296.73169391696592,93.152325329210072,73.114999999999995,17.167666666666662,5.2491204059754137,17.913186877780504,0.38800580097816995
20220722063000,428.79832631732700,15.325657332603205,8.5422788445988787E-002,0,-34.251587677775369,0,-4.3406209450767195,1,2.3203572403055719,1,239.27394886910730,2.8440328810783244,5.0274291277871814,0.60709537683466874,0.46115259634377592,0.33912168754550176,0.27694353037533370,51.475656962775517,0.36910650822270802,106.48377211985856,194.68629669235489,232.98977356676323,291.67554893328435,93.166176463107632,75.906666666666666,16.584666666666692,4.5332621201736583,17.390765492757168,0.38683511512993279
20220722070000,428.48700790681994,15.123999666473898,9.8651279450552548E-002,0,-39.045325910613855,0,-1.8307577597503246,1,2.7795656820658157,0,240.51202059257486,3.2309264057922449,5.5913114268289990,0.68932452471327699,0.55787699168963600,0.40185042685578448,0.29751829578352029,55.991268341553415,0.33933862480302701,98.449676806492064,179.99740811624267,215.41092553564653,269.66891718031809,93.182878847652987,75.472999999999999,16.469333333333338,4.5811243444893854,17.225493372882170,0.36140569232751452
20220722073000,429.72647929272324,15.172122981423433,0.13628305768486071,0,-40.309982346686624,0,-0.45688250962445665,1,3.5834647838218485,0,242.08927962679508,3.2593436511537459,6.3041787807168328,0.73256787684522029,0.59010522815203903,0.44664543620155711,0.34949547615430571,87.926127536142829,0.21609049019234788,102.90531967275417,188.14374433017647,225.16000938042490,281.87361328560667,93.199780315868423,77.065333333333328,16.194333333333361,4.2093117680220526,16.965014424786659,0.29965140778055976
20220722080000,430.53843654528515,15.258767822881662,7.1693970980577157E-002,0,-35.618220774596566,0,-2.5273560896204654,0,2.7278686411594557,0,240.92500463466976,3.2648588892342501,6.1131600964328037,0.68074478206018441,0.53213340023972233,0.37591744426093021,0.25343617262569235,37.944710261749243,0.50072855660076676,91.343110666323355,167.00433868899324,199.86153990746456,250.20293153105661,93.201674641059029,78.142666666666670,16.066333333333318,3.9789511537311637,16.858025780571836,0.31662043286353869
20220722083000,431.35849293412008,15.347437819815521,0.13442036823886880,0,-48.503376608506429,0,-1.2790594965316815,0,4.3901641460972671,0,238.77769984452124,3.1014946602724121,5.9235588992634742,0.81074003577824560,0.66594842175567737,0.48825895000400427,0.34699021054761975,71.522009000146454,0.26565249306631045,95.277095100073865,174.19691691387209,208.46921903253346,260.97872437128024,93.212468253472224,78.771666666666661,16.033333333333303,3.8563126226614739,16.810439180162234,0.30522760234589780
20220722090000,432.53239069678182,15.439492982492508,0.12129648081497930,0,-28.286038905580330,0,-1.3426126606207547,0,2.6299013281630859,0,240.04477388660615,3.0286317281293424,5.8886490506548270,0.76502998059501892,0.65243664517966193,0.47743903024610829,0.32957720527754419,105.10094395361334,0.18077858566508895,93.086413479131252,170.19165222872124,203.67594016328215,254.97810801813986,93.224672725354907,79.462333333333333,15.992333333333306,3.7210899504185635,16.751943730306493,0.26611001295179104
20220722093000,429.88962507613968,15.564091619259306,0.20933878268274306,0,-43.329465942972540,0,1.4038500806021210,2,3.5269953339283076,1,242.39825819772409,3.1522180628420253,8.0546463457481217,1.0664042735261676,0.81189575992685059,0.61874521262493631,0.43334529798690657,155.95751172236410,0.12182805297524778,94.170025783000909,172.17284112061353,206.04691726417383,257.94628999807838,93.214714956175683,77.796333333333337,16.449000000000012,4.1418112572936527,17.243977689483472,0.39431552369930595
20220722100000,430.64537290596098,15.589044381261481,0.16442256622683465,0,-12.910216246319433,2,-7.0214041827524714,1,-1.3573321668208977,2,233.18375335144455,2.6522108500568948,6.6580972406717205,0.93153972772980342,0.81381644913128892,0.54416074384921287,0.38407182689225172,364.40506970462849,5.2139779546427838E-002,94.755209066134839,173.24274279681808,207.32731631388972,259.54919767064422,93.212057139539951,77.824666666666673,16.468000000000018,4.1415313482990310,17.171180529276512,0.40926263309179295
20220722103000,436.60265850737750,15.452602138292173,0.15278972466362190,0,-49.556222121763795,0,-2.2373067232366775,1,7.6121800232486736,0,220.47823431259536,2.8402534124415149,6.1861042427822124,0.82971625436656515,0.65763485984057080,0.50934732762142954,0.36963255995496663,84.610946080455591,0.22455723378784956,96.885737694486465,177.13802862669962,211.98897858237521,265.38504565781977,93.197600189670140,82.079999999999998,15.494666666666660,3.1450205624010072,16.235358769734717,0.26536688450805895
20220722110000,432.84001054936454,15.483236564206786,0.28334240309875275,0,-36.820147156636864,1,-4.4637139483109918,2,1.5883126036718280,2,230.95859097517922,3.1560758717310620,6.5692990898517571,0.94807288170001414,0.77404078345430838,0.60799275441924550,0.50356619583998485,287.92632145883687,6.5989104100426327E-002,107.69150134553834,196.89441090237798,235.63232231592249,294.98370639098982,93.191302224392359,81.120666666666665,15.707999999999970,3.3589903205363543,16.506461674160448,0.38898795855900326
20220722113000,425.52774261601564,15.604703900792030,0.40146666910948575,0,-27.222556277802227,2,13.628862022473642,1,-2.6468944299332939,2,240.32225774738532,3.2944132072114694,7.9025243895906785,1.1588170614537845,0.88698649110110617,0.71138973533773353,0.60078388318538800,661.33992355960152,2.8729552417967211E-002,109.38139129578191,199.98406869417960,239.32985358309830,299.61257677247221,93.185776588758685,75.288666666666671,17.000999999999976,4.7740637437530884,17.772274194505485,0.40048255032901847
20220722130000,421.90994312995258,17.660362547912232,4.7130734070687748,1,-389.72735678934305,1,22.412230306802105,2,7.3309387639487174,1,234.84027123665805,2.3890765608519686,22.524229450070784,1.6966734732161086,3.7609055924413819,1.1879242783111972,2.0553069202249366,1850.3234282071162,1.0268475073252563E-002,194.14456660222652,354.95818698256619,424.79429223219950,531.79204595024271,93.195225408400546,91.333333333333329,15.911666666666690,1.5621852842128670,21.553471630374645,2.7711922330079686
20220722133000,416.29987872637872,18.365819529784368,2.2422987012667313,1,27.073817184921364,2,123.69218949141310,1,-6.7063873702607939,1,235.46389895348500,2.8921973571456263,17.814376295644280,1.5879579112404025,2.6615617322658567,0.92657695948468133,1.4204157707921203,-8792.3714286199011,-2.1609642124709857E-003,176.23091289367477,322.20631473651525,385.59866609856715,482.72377315313202,93.185695500074772,89.010000000000005,16.930000000000007,2.1136590528856276,17.668458038370829,0.45557679231783549
20220722140000,415.98698553356451,18.581567895128767,0.38994058412214683,0,18.489176019576881,1,124.49817508648707,0,-8.0957871169142326,0,237.08047984299978,3.4941529930318533,7.9634518124967064,1.1852075730984792,1.0272923742689877,0.79267117096632078,0.59342271887222331,-938.63994120814289,-2.0242053598896192E-002,99.328021360232370,181.60330209410739,217.33277047610568,272.07483899135610,93.152945255859379,84.836666666666673,17.869333333333316,3.0946141887229057,18.707564750671395,0.31247196198177407
20220722143000,414.74530221134290,19.103642022698672,0.43901919962009966,0,54.433096165683331,1,137.60209373084544,0,-7.2033220218363656,0,247.28517954437564,3.2244305408184202,8.5583738473244075,1.2237644217036046,1.1918256339626574,0.86947940011503255,0.63101754073208161,-383.32415666510843,-4.9566403968115610E-002,96.890368475811940,177.14649517187453,211.99911087456377,265.39773008529829,93.132339648003480,81.225333333333339,19.002000000000010,4.1135226865939423,19.872121091206964,0.27012286687527781
20220722150000,415.63518345487523,19.117461990102669,0.65106672108459296,0,48.571638066223009,0,203.49319525496799,0,-11.789554429859907,0,255.07030748611464,3.8149710736539606,9.0673002532127320,1.5262200830329204,1.2973780339894156,0.90085584444420352,0.76940531889072894,-778.82682815578801,-2.4395667063743531E-002,110.37095665107960,201.79330976934651,241.49505306345483,302.32314958996153,93.146031942249579,77.480666666666664,19.774666666666690,5.1769414559697839,20.561592432325824,0.27900577530058362
20220722153000,414.47853962951353,19.515321892421248,0.56001821383734418,0,85.843340358064282,0,172.60878654490142,0,-9.4728155170313126,0,263.62272762768629,3.8686328575633988,9.6099642760171466,1.3952980979578247,1.2992081241784861,0.90439288530726492,0.71465074286972086,-353.22430727903475,-5.3790182635960755E-002,103.71564431362643,189.62527621347985,226.93302465621622,284.09321801725105,93.169788635199652,74.790999999999997,20.683666666666682,6.1301850810753828,21.453562748379113,0.37268418017390065
20220722160000,412.85788681186449,19.414514077322188,0.93252186149189731,0,152.80684846090568,0,276.42256032600045,0,-14.307136443565321,0,262.23956298957103,4.2798303076614124,10.035927906183097,1.7261207761210073,1.2805651829953411,1.1076809545141326,0.92345786325367185,-428.15784241784485,-4.4376157850351018E-002,108.25720642477950,197.92870020961203,236.87010245550667,296.53326024541457,93.175815583550346,70.685333333333332,21.519999999999982,7.5041560587695386,22.217674930148632,0.36410571214690096
20220722163000,409.28513691000802,19.593350571555227,0.72749768713367091,0,179.46477262013300,0,208.99477828990433,0,-21.001028594793731,1,275.21224059749352,3.6906792854695496,10.098576902066959,1.6267591110338380,1.2993342650279673,1.0094337685324812,0.81677392750007027,-252.28130755080127,-7.5312753784479325E-002,105.69979119793670,193.25292952919105,231.27439915953772,289.52810372917014,93.188386225911458,67.811333333333337,22.353000000000009,8.6693728855095600,23.069676091512008,0.39718226384691396
20220722170000,404.32281425932115,17.666660025377023,0.66975043857918592,0,130.02943268491106,0,338.37323828658810,0,-12.582099057463095,0,300.27961253277971,4.2809791850249317,10.756282842400633,1.7765164749418578,1.7570135243257345,1.0763416858772681,0.78411470533559335,-308.01433617386215,-6.1685440476625206E-002,97.184823527976391,177.68485291885332,212.64338759921026,266.20428809189838,93.205003610243068,58.994333333333330,22.945666666666682,11.448372130848682,23.396660216437454,0.36773168206936041
20220722173000,402.49463577741500,16.575714433510512,1.1671157153020222,0,185.02942330713111,0,361.00490159015095,0,-13.852410783792388,0,289.27660796550538,4.9383819470555421,12.268318772905491,2.0802579286163443,1.7200683252376652,1.1889380980973672,1.0357049957849684,-498.72258510145429,-3.8097332199492955E-002,112.12859018306595,205.00682443428119,245.34080937428408,307.13758013707451,93.203406515639756,53.809333333333335,23.413000000000011,13.265301955041378,23.718235273290702,0.38188790966132380
20220722180000,400.83103186338411,15.310399107323001,1.1153487049502571,0,135.83554450814660,0,330.04025278006122,0,-11.016927091590102,0,294.99050607706204,4.7541944541037173,12.581458976868749,2.1244949287777133,1.9446905168846993,1.1768439836670099,1.0132156678705622,-635.89300920603887,-2.9879240257292584E-002,111.08138963304786,203.09220784136281,243.04950231246181,304.26913559206014,93.199790343315968,48.037333333333336,23.978333333333353,15.439401686774863,24.175797789679677,0.39966934084079780
20220722183000,400.49599463290804,15.259879366760090,1.0914268645523106,0,171.13524079916851,0,280.71066766761464,0,-14.638328179645955,0,295.30265874681152,4.2813271464558360,12.209737753911837,2.0147672369142504,1.6936158415374016,1.1372110331540948,1.0029650235697303,-489.55551448654728,-3.8810715920394583E-002,113.24282076689765,207.04399330714364,247.77878021491037,310.18963032939445,93.197261331814246,46.750333333333330,24.375666666666689,16.203279069472583,24.512049109564941,0.38493272369758585
20220722190000,401.98396460194562,15.281225576844871,0.91564158267444085,0,167.17535736880171,0,299.02757370778033,0,-14.488201088313755,0,282.05573784194729,4.0716672543004098,12.046249055381846,1.7939051344137116,1.7297746131669967,1.1068660584474233,0.91883398545168471,-385.31203533028383,-4.9310683959595182E-002,107.88684275383304,197.25155729768747,236.05973533464581,295.51877677175753,93.193335364736711,46.527000000000001,24.478333333333353,16.371520664300910,24.654659224017507,0.36387924427912960
20220722193000,402.39425464907305,15.136885600692299,0.83317697465580121,0,113.12952095462765,0,209.16484998772557,0,-10.255144357898084,0,291.08634255496861,4.2852290291911883,10.991076846174487,1.9969749883834846,1.6919282679302712,1.0063014871295510,0.87659434751049892,-494.41075284093222,-3.8429584896412856E-002,112.12729389645135,205.00445440892025,245.33797305924000,307.13402940720869,93.194456730902786,45.823333333333331,24.574666666666644,16.682790332015429,24.799082870483403,0.38787108198521686
20220722200000,401.57919245535840,15.233619109066947,0.75561100755974420,0,146.92653885501196,0,342.83464263068095,0,-14.081630561230115,0,271.68223598590748,3.2848174083106683,9.4359886244928877,1.5913049611700727,1.4169061810091226,0.93568686399618362,0.83549953162232182,-329.62804127400022,-5.7640727186211771E-002,114.36876788864457,209.10258374811320,250.24238720141605,313.27377393425962,93.196012560253109,44.767666666666663,25.072333333333347,17.520473325274391,25.310800897507477,0.37843665831004736
20220722203000,401.77835797673657,14.500047273811203,1.0711306792309774,0,115.79294378396807,0,345.81797095110591,0,-10.946970390500256,0,274.55196111294259,4.1738504711206490,11.883800610281275,2.0755234464532748,1.6780096602878394,1.0655401286261768,0.99520956939915683,-706.78806907481601,-2.6882174206577875E-002,118.55795140836125,216.76174729371215,259.40844978783321,324.74859660789929,93.193543690321178,41.745333333333335,25.417333333333318,18.862294092662310,25.519126821729913,0.31396169362610438
20220722210000,401.91812572395992,14.144462793001544,1.0112729849878999,0,116.68865213873339,0,365.67007799434168,0,-11.974633043783305,0,287.36821221188063,4.4651876154560206,11.853113095572400,1.8736360707820598,1.7335160439446635,1.1627466678377070,0.96743283550962789,-644.22213009196389,-2.9492932813853685E-002,108.08451443259119,197.61296417060581,236.49224705692575,296.06023012434400,93.192512260199663,39.995666666666665,25.720333333333315,19.781245418620188,25.788136645846919,0.24801375717185528
20220722213000,401.30293978015487,14.618323663738826,0.54472532202631263,0,55.072641580967804,0,215.79785687379086,0,-9.1010969270039599,0,287.67270146644205,3.1412731415277690,10.303935900775265,1.3973106884728668,1.2290975650622966,0.81957439055334924,0.71053975663706082,-540.80526352530774,-3.5132794152457188E-002,111.70044481870228,204.22403815826402,244.40401412829610,305.96482365326540,93.183845544904301,40.485999999999997,26.069666666666649,20.029446664880911,26.250542363390309,0.24580412721245326
20220722220000,402.13640573733295,14.143315489963140,0.73466716017724820,0,54.630126410292874,1,298.38196074437923,1,-8.8881298111466869,1,285.08448524082269,4.2630946903203064,10.291950218670269,1.8619887343681387,1.4643159012688454,0.96713581656718639,0.82537301568973154,-854.38576032978790,-2.2238198343411193E-002,110.30244495309795,201.66804853475068,241.34514735780934,302.13548543495153,93.170792723741329,38.802666666666667,26.226999999999975,20.788273609802211,26.339837354871975,0.22028774536010098
20220722223000,401.60977078016845,14.790784833110600,0.30214971306941768,0,7.1498269480286281,0,133.29176095661995,0,-5.6219082183342461,0,283.60194502537337,3.3511204374496928,8.7994469499519017,1.2295216668176574,1.1091728453867129,0.72984798291001762,0.52928498808639801,-1721.8693175191872,-1.1034519174413639E-002,96.832385566151345,177.04048392031441,211.87224248209776,265.23890591268201,93.184336998697930,40.745000000000005,26.160333333333313,20.049396215774632,26.449853430853977,0.13260738044544246
20220722230000,401.08113984750997,15.017873416331582,0.41668915805418294,0,-2.6924279261214195,2,152.36863625014675,0,-4.0842899434262678,0,271.89947180389174,3.5076747959964103,9.6620817000428385,1.2879825827427722,1.1482487550775178,0.85413457675206395,0.62171915764647423,7411.4698936853774,2.5635940336461637E-003,97.120130482031541,177.56657339807740,212.50183722185258,266.02708381642537,93.190455070746523,41.020666666666664,26.305333333333351,20.127669664720724,26.619504495408819,0.10072006144281967
20220722233000,400.87724534916100,15.348151146133143,0.40238415337035260,0,-8.8124980635046821,1,159.25129597785025,0,-3.6606365860549959,0,271.08778728037646,3.3539273383053771,8.2453380781324146,1.2034546207802403,1.0635193900399547,0.78321932558801322,0.61092591370853255,2148.5813881212757,8.8430441150817388E-003,102.64528891967883,187.66832518099963,224.59105408260518,281.16134876742814,93.189284456814235,42.093333333333334,26.236333333333334,19.681299543301172,26.609317017449257,8.4949755284908252E-002